Regional Weather Roundup
Issued by NWS Austin/San Antonio, TX

Home | Current Version | Previous Version | Text Only | Print | Product List | Glossary On
Versions: 1 2 3 4 5 6 7 8 9 10 11 12 13 14 15 16 17 18 19 20 21 22 23 24 25 26 27 28 29 30 31 32 33 34 35 36 37 38 39 40 41 42 43 44 45 46 47 48 49 50
000
ASUS44 KEWX 041711
RWREWX
SOUTH TEXAS REGIONAL WEATHER ROUNDUP
NATIONAL WEATHER SERVICE AUSTIN/SAN ANTONIO TX
1200 PM CDT TUE AUG 04 2020

NOTE: "FAIR" INDICATED FEW OR NO CLOUDS BELOW 12,000 FEET WITH NO
SIGNIFICANT WEATHER AND/OR OBSTRUCTIONS TO VISIBILITY.

* - THESE STATIONS ARE NOT NWS OR FAA STATIONS...AND ARE NOT SUBJECT
    TO NWS AND FAA QUALITY CONTROL.

TXZ171-172-183>190-041800-
TEXAS HILL COUNTRY AND EDWARDS PLATEAU

CITY           SKY/WX    TMP DP  RH WIND       PRES   REMARKS
JUNCTION       SUNNY     93  64  38 S12G17    30.09S HX  94
*LLANO         SUNNY     93  63  36 S7G14     30.05S HX  94
BURNET         SUNNY     88  64  44 S8        30.09F
*HORSESHOE BAY SUNNY     93  61  33 S7        30.07F HX  93
*LAGO VISTA    SUNNY     87  67  51 SW7       30.09S HX  90
*KERRVILLE     SUNNY     89  67  47 S10       30.10F HX  92
*FREDERICKSBRG SUNNY     88  62  41 CALM      30.10S
*ROCKSPRINGS   SUNNY     86  64  48 S9G17     30.17S
*BOERNE        MOSUNNY   82  68  61 S7        30.11S
*CASTROVILLE   MOSUNNY   89  71  56 E5        30.08F HX  95
HONDO          SUNNY     88  68  51 VRB3      30.07S HX  91
*UVALDE        MOSUNNY   89  68  48 SE8       30.08S HX  93
DEL RIO        MOSUNNY   95  65  37 SE14G21   30.02S HX  97
*LAUGHLIN AFB  MOSUNNY   93  60  33 S12       30.03F HX  93
*SPOFFORD      NOT AVBL
*EAGLE PASS    SUNNY     95  61  31 S10G16    30.04S HX  95
CARRIZO SPRGS  SUNNY     93  66  40 E7        30.03S HX  96
$$

TXZ173-191>194-202-209-217>225-228-041800-
CENTRAL AND SOUTH CENTRAL TEXAS

CITY           SKY/WX    TMP DP  RH WIND       PRES   REMARKS
GEORGETOWN     SUNNY     90  69  50 VRB5      30.07F HX  94
*TAYLOR        SUNNY     91  69  49 E6        30.05S HX  95
AUSTIN/BERGSTM MOSUNNY   92  69  47 CALM      30.04F HX  97
AUSTIN/MABRY   SUNNY     92  67  43 CALM      30.06F HX  95
*PFLUGERVILLE  NOT AVBL
SAN MARCOS     PTSUNNY   88  70  55 S3        30.07S HX  93
NEW BRAUNFELS  MOSUNNY   84  72  67 S5        30.06R
*RANDOLPH AFB  PTSUNNY   82  72  71 SE3       30.07S
*SEGUIN        CLOUDY    82  74  76 S5        30.10S
SAN ANTONIO    MOSUNNY   86  71  60 SE6       30.07F HX  91
STINSON FIELD  MOSUNNY   84  74  71 MISG      30.05S HX  91
*KELLY FIELD   MOSUNNY   87  72  61 SE5       30.05F HX  93
*PLEASANTON    MOSUNNY   91  71  53 CALM      30.07S HX  97
*KENEDY        MOSUNNY   90  71  54 W3        30.06S HX  96
*LA GRANGE     SUNNY     93  71  48 S5        30.02F HX 100
*GIDDINGS      SUNNY     93  71  48 W6        30.05F HX 100
*GONZALES      SUNNY     90  73  58 CALM      30.05S HX  98
$$

TXZ163>164-176>182-195>201-210>213-226-227-235-041800-
SOUTHEAST TEXAS

CITY           SKY/WX    TMP DP  RH WIND       PRES   REMARKS
COLLEGE STN    SUNNY     90  71  53 W7        30.03S HX  96
*BRYAN         MOSUNNY   91  70  50 W3        30.05S HX  96
*CALDWELL      SUNNY     91  70  51 NW5       30.04F HX  96
*CROCKETT      NOT AVBL
*BRENHAM       SUNNY     90  75  60 W6        30.05S HX 100
HUNTSVILLE     SUNNY     93  67  42 VRB7      30.03S HX  96
CONROE         SUNNY     93  70  46 VRB5      30.03S HX  99
HOUSTON BUSH   MOSUNNY   92  72  51 SW6       30.03S HX  99
HOUSTON HOBBY  MOSUNNY   91  72  53 VRB7      30.02F HX  98
*HOUSTON SW AP SUNNY     88  75  66 W5        30.05S HX  98
PEARLAND       SUNNY     91  71  51 W6        30.04F HX  97
HOUSTON HOOKS  SUNNY     90  71  53 VRB5      30.03S HX  96
ELLINGTON FLD  MOSUNNY   90  75  62 W7        30.02S HX 100
SUGAR LAND     MOSUNNY   91  72  53 VRB3      30.03S HX  98
*HOUSTON EXEC  SUNNY     91  73  55 SW6       30.05S HX 100
*CLEVELAND MUN SUNNY     91  71  52 CALM      30.03F HX  97
*WHARTON       CLOUDY    88  70  55 W6        30.05S HX  93
*COLUMBUS      FAIR      88  74  64 SW6       30.06S HX  97
*EAGLE LAKE    SUNNY     91  75  60 CALM      30.04  HX 101
$$

TXZ214>216-236>238-041800-
THE UPPER TEXAS COAST

CITY           SKY/WX    TMP DP  RH WIND       PRES   REMARKS
*ORANGE        SUNNY     91  74  58 W7        30.03F HX 100
PORT ARTHUR    SUNNY     90  77  65 W9        30.01  HX 103
GALVESTON      MOSUNNY   91  77  63 W6        30.04F HX 104
ANGLETON       SUNNY     90  75  61 VRB6      30.03S HX 100
*BAY CITY      MOSUNNY   88  76  66 CALM      30.03F HX  98
PALACIOS       SUNNY     90  76  63 S8        30.03F HX 101
$$

TXZ229>234-239>247-041800-
TEXAS COASTAL BEND AND RIO GRANDE PLAINS

CITY           SKY/WX    TMP DP  RH WIND       PRES   REMARKS
VICTORIA       MOSUNNY  N/A N/A N/A SW5       30.05S
*BEEVILLE      MOSUNNY   88  78  71 CALM      30.05R HX 101
ROCKPORT       SUNNY     90  73  57 SE3       30.03S HX  98
*PORT ARANSAS  SUNNY     87  75  68 SE6       30.05S HX  96
*PORT LAVACA   SUNNY     90  76  63 CALM      30.05S HX 100
*INGLESIDE     SUNNY     90  76  64 S3        30.03S HX 101
CORPUS CHRISTI MOSUNNY   88  73  61 VRB3      30.03S HX  95
CORPUS NAS     MOSUNNY   89  74  60 E7        30.03S HX  98
*ROBSTOWN      SUNNY     92  71  49 CALM      30.04R HX  98
ALICE          MOSUNNY   90  72  55 VRB3      30.03S HX  97
KINGSVILLE NAS PTSUNNY   90  73  57 VRB3      30.03S HX  98
COTULLA        SUNNY     90  71  53 S6        30.04S HX  96
LAREDO         MOSUNNY   91  73  55 E6        30.03R HX  99
$$

TXZ248>255-041800-
DEEP SOUTH TEXAS

CITY           SKY/WX    TMP DP  RH WIND       PRES   REMARKS
BROWNSVILLE    SUNNY     92  73  53 VRB3      30.02R HX 100
PORT ISABEL    SUNNY     89  74  60 SE8       30.02R HX  98
HARLINGEN      MOSUNNY   88  75  65 E5        30.02S HX  97
*HEBBRONVILLE  SUNNY     87  68  53 S5        30.06S HX  90
MCALLEN        MOSUNNY   89  73  59 VRB7      30.02F HX  97
*WESLACO       MOSUNNY   89  73  59 S8        30.02S HX  96
FALFURRIAS     MOSUNNY   84  73  68 S5        30.03S HX  90
EDINBURG       NOT AVBL
*ZAPATA        NOT AVBL
$$

TXZ213>215-236>238-242>244-246-247-251-254-255-041800-
CMAN STATIONS

STATION/POSITION TIME  TEMP    WIND        PRES    WAVE
                       AIR SEA DIR/SP/G            HT/PER
                 (UTC) (F)     (DEG/KT/KT) (MB)    (FT/S)
SABINE PASS      1630   89 87   CALM  /  8 1018.6
NORTH JETTY/GLS  1624   86 85  280/  6/  8 1015.8
EAGLE POINT      1624   85 86  260/  5/ 10 1016.5
MORGANS POINT    1630   88 87  250/  8/ 11 1016.8
PORT O`CONNOR    1624   83 89   10/  5/  6 1017.1
PORT ARANSAS     1600   85 87  200/  2/  3 1017.2
MALAQUITE BEACH  1624   85     120/  5/  5   N/A
BAFFIN BAY       1624   84 89  180/  4/  5 1017.3
PORT ISABEL      1624   87 87   90/  7/  9 1018.5
$$



USA.gov is the U.S. government's official web portal to all federal, state and local government web resources and services.